Location: Wien
(48.2082°N, 16.3738°E)
Time: 12:01:34
(UTC+02:00)

Tiros 1 despin weight - Pass Details

Date: 19 September 2024
Orbit: 573 x 615 km, 48.2° (Epoch: 06 October)

Event Time Altitude Azimuth Distance (km) Brightness Sun altitude
Rises 08:04:09 0° 284° (WNW) 2,889 ? 13.5°
Reaches altitude 10° 08:06:38 10° 275° (W) 1,982 ? 13.9°
Maximum altitude 08:10:42 32° 212° (SSW) 1,054 ? 14.5°
Drops below altitude 10° 08:14:44 10° 149° (SSE) 1,968 ? 15.2°
Sets 08:17:12 0° 139° (SE) 2,865 ? 15.6°
